Volver al catálogo

BLOCK DM-SL R/B

ActivoHEO
NORAD 27953·ROCKET BODY· XX

Lanzado Oct 1, 2003 desde Sea Launch Platform

Loading…

Próximos Pases (próximas 24 horas)

TLE

ActualizadoSource: Space-Track

Época: Sep 14, 2026, 08:53 UTC

1 27953U 03044B   26257.37027551 -.00000110  00000-0  00000-0 0  9992
2 27953   0.5616 330.1214 6588403 326.5208  11.8510  2.14422782179746

Sigue BLOCK DM-SL R/B en tiempo real con AllMySat

Download on the App Store